Regional Weather Roundup
Issued by NWS State College, PA

Home | Current Version | Previous Version | Graphics & Text | Print | Product List | Glossary On
Versions: 1 2 3 4 5 6 7 8 9 10 11 12 13 14 15 16 17 18 19 20 21 22 23 24 25 26 27 28 29 30 31 32 33 34 35 36 37 38 39 40 41 42 43 44 45 46 47 48 49 50
000
ASUS41 KCTP 311510
RWRCTP

REGIONAL WEATHER ROUNDUP
NATIONAL WEATHER SERVICE STATE COLLEGE PA
1100 AM EDT FRI OCT 31 2014

Note: "fair" indicates few or no clouds below 12,000 feet with no
significant weather and/or obstructions to visibility.

* = STATION THAT DOES NOT REPORT PRECIPITATION /E.G. RAIN...SNOW...ETC/
    THUNDER OR FOG.

PAZ002>004-007>009-013>016-020>023-029>032-311600-
WESTERN PENNSYLVANIA

CITY           SKY/WX    TMP DP  RH WIND       PRES   REMARKS
ERIE           CLOUDY    48  35  60 SW10      29.92F
MEADVILLE      CLOUDY    44  38  79 S6        29.92S
FRANKLIN*      CLOUDY    43  36  75 S6        29.93F
NEW CASTLE       N/A     46  38  74 CALM      29.94F
BEAVER COUNTY  CLOUDY    45  34  65 W5        29.93F
BUTLER*        CLOUDY    45  36  70 S3        29.95F
PITTSBURGH INT CLOUDY    45  37  73 S3        29.93F
PITTSBURGH     CLOUDY    46  35  65 CALM      29.93F
INDIANA*       CLOUDY    45  39  81 SW5       29.97F
LATROBE        CLOUDY    45  39  81 CALM      29.96F
WASHINGTON CO* CLOUDY    46  36  66 S5        29.95F
$$

PAZ004>006-010>012-017>019-024>028-033>037-041-042-045-046-049>053-311600-
CENTRAL PENNSYLVANIA

CITY           SKY/WX    TMP DP  RH WIND       PRES   REMARKS
BRADFORD       CLOUDY    40  34  79 SE6       29.92S
DUBOIS         CLOUDY    43  38  82 S5        29.92F
CLEARFIELD     CLOUDY    42  36  79 N5        29.95F
JOHNSTOWN      CLOUDY    42  34  73 SE6       29.92F
ALTOONA        CLOUDY    45  38  76 E5        29.95F
STATE COLLEGE  CLOUDY    43  36  75 VRB5      29.96F
WILLIAMSPORT   CLOUDY    43  35  73 CALM      29.99F
SELINSGROVE    CLOUDY    45  37  73 CALM      30.00F
FT INDIANTOWN  CLOUDY    46  35  63 VRB2      29.99F
CAPITAL CITY   CLOUDY    49  35  58 E6        30.00F
HARRISBURG     CLOUDY    49  35  58 CALM      29.99F
YORK           CLOUDY    48  35  60 SE7       29.99F
$$

PAZ038>040-043-044-047-048-054-055-060>062-067>071-311600-
EASTERN PENNSYLVANIA

CITY           SKY/WX    TMP DP  RH WIND       PRES   REMARKS
SCRANTON       SUNNY     45  33  63 NW5       29.98F
MOUNT POCONO   SUNNY     42  30  62 E8        29.96F
ALLENTOWN      MOSUNNY   46  35  65 E5        30.00F
QUAKERTOWN*    PTSUNNY   46  37  71 NE3       30.01F
READING        MOSUNNY   45  36  70 CALM      29.99F
LANCASTER      CLOUDY    47  33  58 E5        29.99F
COATESVILLE    PTSUNNY   48  36  61 E5        29.99F
POTTSTOWN      PTSUNNY   48  36  63 NE7       30.01F
BLUE BELL      PTSUNNY   48  37  66 CALM      29.99F
DOYLESTOWN     PTSUNNY   48  36  63 NE8       29.99F
WILLOW GROVE   NOT AVBL
NORTH PHILA    CLOUDY    49  35  58 NE6       30.00F
PHILADELPHIA   CLOUDY    49  35  58 NE6       29.99F
$$



USA.gov is the U.S. government's official web portal to all federal, state and local government web resources and services.